Home   Weather   Youngstown   Past weeks

Flag for USA Past Weather in Youngstown, Ohio, USA — Yesterday and Last 2 Weeks

Now
47 °F

Overcast.


Feels Like: 42 °F
Forecast: 44 / 62 °F
Wind: 12 mph from Southeast

Location: Youngstown-Warren Regional Airport

Current Time: Feb 21, 2017 at 5:18:19 am

Latest Report: Feb 21, 2017 at 3:51 am


Visibility: 10 mi

Pressure: 30.09 "Hg

Humidity: 54%

Dew Point: 31 °F

Location of YoungstownLocation

Past Weather in Youngstown — Graph

°F

Youngstown Temperature Yesterday

Maximum temperature yesterday: 58 °F (at 2:51 pm)
Minimum temperature yesterday: 31 °F (at 6:51 am)
Average temperature yesterday: 45 °F

High & Low Weather Summary for the Past Weeks

 TemperatureHumidityPressure
High66 °F (Feb 18, 3:51 pm)97% (Feb 12, 11:33 am)30.36 "Hg (Feb 12, 11:33 am)
Low13 °F (Feb 10, 7:51 am)32% (Feb 19, 2:51 pm)29.43 "Hg (Feb 7, 8:23 pm)
Average36 °F70%29.89 "Hg
* Reported Feb 6 3:51 am — Feb 21 3:51 am, Youngstown, Weather by CustomWeather, © 2017

Note: Actual official high and low records may vary slightly from our data, if they occured in-between our weather recording intervals... More about our weather records

Advertising

Youngstown Weather History for the Previous 24 Hours

Scroll right to see more
 ConditionsComfort  
Time TempWeatherWind HumidityBarometerVisibility
3:51 am
Tue, Feb 21
47 °FOvercast.12 mph54%30.09 "Hg10 mi
2:51 am47 °FMostly cloudy.12 mph52%30.10 "Hg10 mi
1:51 am47 °FOvercast.13 mph52%30.12 "Hg10 mi
12:51 am48 °FOvercast.12 mph50%30.14 "Hg10 mi
11:51 pm
Mon, Feb 20
47 °FPassing clouds.10 mph52%30.16 "Hg10 mi
10:51 pm45 °FPassing clouds.9 mph56%30.18 "Hg10 mi
9:51 pm44 °FPassing clouds.8 mph58%30.22 "Hg10 mi
8:51 pm46 °FPassing clouds.7 mph54%30.23 "Hg10 mi
7:51 pm49 °FOvercast.6 mph48%30.23 "Hg10 mi
6:51 pm51 °FPassing clouds.6 mph42%30.24 "Hg10 mi
5:51 pm52 °FOvercast.6 mph43%30.24 "Hg10 mi
4:51 pm56 °FPartly sunny.3 mph39%30.25 "Hg10 mi
3:51 pm58 °FPartly sunny.3 mph32%30.24 "Hg10 mi
2:51 pm58 °FPartly sunny.No wind32%30.25 "Hg10 mi
1:51 pm56 °FScattered clouds.3 mph36%30.26 "Hg10 mi
12:51 pm53 °FScattered clouds.5 mph39%30.29 "Hg10 mi
11:51 am51 °FScattered clouds.6 mph46%30.30 "Hg10 mi
10:51 am48 °FScattered clouds.5 mph54%30.32 "Hg10 mi
9:51 am46 °FScattered clouds.5 mph63%30.32 "Hg10 mi
8:51 am40 °FPartly sunny.5 mph77%30.30 "Hg10 mi
7:51 am35 °FBroken clouds.3 mph85%30.29 "Hg10 mi
6:51 am31 °FPartly cloudy.6 mph92%30.25 "Hg10 mi
5:51 am34 °FPassing clouds.No wind85%30.24 "Hg10 mi
Weather by CustomWeather, © 2017

See weather overviewHow to use our weather pages